Location: Juniper Campground
(35.7953°N, 106.2814°W)
Time: 11:53:16
(UTC-06:00)

Envisat - Visible Passes

Search period start: 19 June 2018 00:00
Search period end: 29 June 2018 00:00
Orbit: 764 x 766 km, 98.2° (Epoch: 19 June)

Date Brightness Start Highest point End Pass type
(mag) Time Alt. Az. Time Alt. Az. Time Alt. Az.
19 Jun 5.6 21:38:17 10° SW 21:41:24 16° W 21:44:31 10° NW visible
20 Jun 4.4 20:59:45 10° SSW 21:04:26 38° W 21:09:09 10° NNW visible
22 Jun 5.3 21:26:22 10° SW 21:30:08 21° W 21:33:56 10° NW visible
23 Jun 4.0 20:48:21 10° S 20:53:14 49° W 20:58:09 10° NNW visible
24 Jun 5.9 21:54:38 10° WSW 21:55:58 11° W 21:57:17 10° WNW visible
25 Jun 5.0 21:14:40 10° SSW 21:18:55 27° W 21:23:10 10° NW visible
27 Jun 5.6 21:41:56 10° SW 21:44:41 15° W 21:47:27 10° WNW visible
28 Jun 4.6 21:03:07 10° SSW 21:07:41 34° W 21:12:18 10° NNW visible
